Location: Newark
(44.9861°N, 0.2536°E)
Time: 19:32:47
(UTC+00:00)

HuskySat-1 - Pass Details

Date: 15 July 2020
Orbit: 457 x 471 km, 51.6° (Epoch: 11 August)

Event Time Altitude Azimuth Distance (km) Brightness Sun altitude
Exits shadow 00:45:02 14° 288° (WNW) 1,386 ? -22.9°
Maximum altitude 00:47:41 32° 348° (NNW) 816 ? -22.8°
Drops below altitude 10° 00:51:00 10° 54° (NE) 1,611 ? -22.7°
Sets 00:53:18 0° 64° (ENE) 2,484 ? -22.6°
